Weatherford, OK

7:32 AM CDT on September 29, 2016 (GMT -0500)
Weatherford

Weather History for KOJA - March, 2014

Change the Weather History Date:

Thursday, March 27, 2014

  Actual Average (KJWG) Record (KJWG)
Temperature  
Mean Temperature 65 °F -  
Max Temperature 77 °F 67 °F 90 °F (1971)
Min Temperature 53 °F 41 °F 26 °F (2009)
Growing Degree Days 15 (Base 50)    
Moisture  
Dew Point 46 °F    
Average Humidity 58    
Maximum Humidity 88    
Minimum Humidity 22    
Precipitation  
Precipitation 0.00 in - - ()
Sea Level Pressure  
Sea Level Pressure 29.63 in    
Wind  
Wind Speed 20 mph (SW)    
Max Wind Speed 29 mph    
Max Gust Speed 41 mph    
Visibility 10 miles    
Events      
Averages and records for this station are not official NWS values.
T = Trace of Precipitation, MM = Missing Value Source: NWS Daily Summary

Daily Weather History Graph

Daily Weather History Graph

Search for Another Location

Airport or City:

Trip Planner

Search our weather history database for the weather conditions in past years. The results will help you decide how hot, cold, wet, or windy it might be!

Date:

Astronomy

Mar. 27, 2014 Rise Set
Actual Time 7:28 AM CDT 7:52 PM CDT
Civil Twilight 7:02 AM CDT 8:17 PM CDT
Nautical Twilight 6:32 AM CDT 8:47 PM CDT
Astronomical Twilight 6:02 AM CDT 9:18 PM CDT
Moon 5:13 AM CDT (3/27) 4:47 PM CDT (3/27)
Length of Visible Light 13h 15m
Length of Day
12h 23m
Waning Crescent, 13% of the Moon is Illuminated
Mar 27
Waning Crescent
Mar 30
New
Apr 7
First Quarter
Apr 15
Full
Apr 22
Last Quarter

Hourly Weather History & Observations

Time (CDT) Temp. Dew Point Humidity Pressure Visibility Wind Dir Wind Speed Gust Speed Precip Events Conditions
12:15 AM 55.4 °F 51.8 °F 88% 29.66 in 10.0 mi South 21.9 mph 34.5 mph N/A   Overcast
12:35 AM 55.4 °F 51.8 °F 88% 29.65 in 10.0 mi South 25.3 mph 39.1 mph N/A   Overcast
1:15 AM 55.4 °F 51.8 °F 88% 29.64 in 10.0 mi South 25.3 mph 34.5 mph N/A   Overcast
1:35 AM 57.2 °F 51.8 °F 82% 29.64 in 10.0 mi South 23.0 mph 33.4 mph N/A   Overcast
1:55 AM 57.2 °F 51.8 °F 82% 29.63 in 10.0 mi South 24.2 mph 33.4 mph N/A   Overcast
2:15 AM 57.2 °F 51.8 °F 82% 29.63 in 10.0 mi South 25.3 mph 35.7 mph N/A   Overcast
2:35 AM 57.2 °F 51.8 °F 82% 29.61 in 10.0 mi South 23.0 mph 36.8 mph N/A   Overcast
2:55 AM 59.0 °F 51.8 °F 77% 29.60 in 10.0 mi South 24.2 mph 35.7 mph N/A   Overcast
3:15 AM 59.0 °F 51.8 °F 77% 29.60 in 10.0 mi South 28.8 mph 38.0 mph N/A   Overcast
3:35 AM 59.0 °F 53.6 °F 82% 29.59 in 10.0 mi South 23.0 mph 35.7 mph N/A   Overcast
3:55 AM 59.0 °F 53.6 °F 82% 29.58 in 10.0 mi South 25.3 mph 35.7 mph N/A   Overcast
4:15 AM 59.0 °F 53.6 °F 82% 29.58 in 10.0 mi South 27.6 mph 35.7 mph N/A   Overcast
4:35 AM 59.0 °F 53.6 °F 82% 29.57 in 10.0 mi South 24.2 mph 36.8 mph N/A   Overcast
4:55 AM 59.0 °F 53.6 °F 82% 29.58 in 10.0 mi South 23.0 mph 35.7 mph N/A   Overcast
5:15 AM 59.0 °F 53.6 °F 82% 29.57 in 10.0 mi South 24.2 mph 41.4 mph N/A   Overcast
5:35 AM 59.0 °F 53.6 °F 82% 29.57 in 10.0 mi South 24.2 mph 34.5 mph N/A   Overcast
5:55 AM 59.0 °F 53.6 °F 82% 29.56 in 10.0 mi South 23.0 mph 34.5 mph N/A   Mostly Cloudy
6:15 AM 59.0 °F 53.6 °F 82% 29.56 in 10.0 mi South 24.2 mph 32.2 mph N/A   Mostly Cloudy
6:35 AM 59.0 °F 53.6 °F 82% 29.57 in 10.0 mi South 26.5 mph 35.7 mph N/A   Mostly Cloudy
6:55 AM 59.0 °F 53.6 °F 82% 29.59 in 10.0 mi SSW 20.7 mph 32.2 mph N/A   Mostly Cloudy
7:15 AM 57.2 °F 53.6 °F 88% 29.59 in 10.0 mi SSW 18.4 mph 28.8 mph N/A   Mostly Cloudy
7:35 AM 57.2 °F 53.6 °F 88% 29.60 in 10.0 mi SSW 18.4 mph 27.6 mph N/A   Scattered Clouds
7:55 AM 57.2 °F 53.6 °F 88% 29.61 in 10.0 mi SSW 16.1 mph 28.8 mph N/A   Clear
8:15 AM 57.2 °F 53.6 °F 88% 29.61 in 10.0 mi SSW 13.8 mph 27.6 mph N/A   Clear
8:35 AM 57.2 °F 53.6 °F 88% 29.60 in 10.0 mi South 16.1 mph 24.2 mph N/A   Clear
8:55 AM 59.0 °F 53.6 °F 82% 29.59 in 10.0 mi South 18.4 mph 24.2 mph N/A   Clear
9:15 AM 59.0 °F 53.6 °F 82% 29.58 in 10.0 mi SSW 18.4 mph 31.1 mph N/A   Clear
9:35 AM 59.0 °F 53.6 °F 82% 29.58 in 10.0 mi SSW 21.9 mph 28.8 mph N/A   Clear
9:55 AM 60.8 °F 53.6 °F 77% 29.58 in 10.0 mi SSW 20.7 mph 32.2 mph N/A   Clear
10:15 AM 62.6 °F 53.6 °F 72% 29.58 in 10.0 mi SSW 19.6 mph 33.4 mph N/A   Clear
10:35 AM 62.6 °F 53.6 °F 72% 29.58 in 10.0 mi SW 18.4 mph 28.8 mph N/A   Clear
10:55 AM 64.4 °F 48.2 °F 56% 29.59 in 10.0 mi SW 26.5 mph 35.7 mph N/A   Clear
11:15 AM 66.2 °F 46.4 °F 49% 29.60 in 10.0 mi SW 19.6 mph 32.2 mph N/A   Clear
11:35 AM 66.2 °F 44.6 °F 46% 29.60 in 10.0 mi SW 21.9 mph 34.5 mph N/A   Clear
11:55 AM 68.0 °F 42.8 °F 40% 29.60 in 10.0 mi WSW 26.5 mph 33.4 mph N/A   Clear
12:15 PM 69.8 °F 42.8 °F 38% 29.60 in 10.0 mi SW 19.6 mph 34.5 mph N/A   Clear
12:35 PM 69.8 °F 42.8 °F 38% 29.59 in 10.0 mi SW 21.9 mph 28.8 mph N/A   Clear
12:55 PM 71.6 °F 41.0 °F 33% 29.59 in 10.0 mi SW 18.4 mph 26.5 mph N/A   Clear
1:15 PM 73.4 °F 35.6 °F 25% 29.60 in 10.0 mi West 20.7 mph 33.4 mph N/A   Clear
1:35 PM 73.4 °F 35.6 °F 25% 29.60 in 10.0 mi West 17.3 mph 31.1 mph N/A   Clear
1:55 PM 75.2 °F 35.6 °F 24% 29.59 in 10.0 mi WSW 19.6 mph 31.1 mph N/A   Clear
2:15 PM 77.0 °F 35.6 °F 22% 29.59 in 10.0 mi West 21.9 mph 28.8 mph N/A   Clear
2:35 PM 77.0 °F 35.6 °F 22% 29.59 in 10.0 mi West 16.1 mph 31.1 mph N/A   Clear
2:55 PM 77.0 °F 35.6 °F 22% 29.59 in 10.0 mi West 19.6 mph 28.8 mph N/A   Clear
3:15 PM 77.0 °F 35.6 °F 22% 29.59 in 7.0 mi West 16.1 mph 26.5 mph N/A   Clear
3:35 PM 77.0 °F 35.6 °F 22% 29.59 in 7.0 mi West 18.4 mph 28.8 mph N/A   Clear
3:55 PM 77.0 °F 37.4 °F 24% 29.60 in 7.0 mi NW 15.0 mph 21.9 mph N/A   Clear
4:15 PM 75.2 °F 39.2 °F 27% 29.60 in 10.0 mi NW 15.0 mph 23.0 mph N/A   Clear
4:35 PM 75.2 °F 41.0 °F 29% 29.61 in 10.0 mi NNW 13.8 mph 20.7 mph N/A   Clear
4:55 PM 75.2 °F 41.0 °F 29% 29.61 in 10.0 mi NW 15.0 mph 21.9 mph N/A   Clear
5:15 PM 75.2 °F 41.0 °F 29% 29.62 in 10.0 mi WNW 15.0 mph 18.4 mph N/A   Clear
5:35 PM 73.4 °F 41.0 °F 31% 29.63 in 10.0 mi NW 13.8 mph 18.4 mph N/A   Clear
5:55 PM 73.4 °F 42.8 °F 33% 29.63 in 10.0 mi NNW 10.4 mph - N/A   Clear
6:15 PM 73.4 °F 41.0 °F 31% 29.64 in 10.0 mi NNW 15.0 mph - N/A   Clear
6:35 PM 71.6 °F 42.8 °F 35% 29.65 in 10.0 mi North 10.4 mph - N/A   Clear
7:15 PM 69.8 °F 41.0 °F 35% 29.66 in 10.0 mi North 6.9 mph - N/A   Clear
7:55 PM 64.4 °F 41.0 °F 42% 29.68 in 10.0 mi NNE 3.5 mph - N/A   Clear
8:15 PM 62.6 °F 41.0 °F 45% 29.69 in 10.0 mi North 4.6 mph - N/A   Clear
8:35 PM 60.8 °F 41.0 °F 48% 29.71 in 10.0 mi North 4.6 mph - N/A   Clear
8:55 PM 59.0 °F 41.0 °F 51% 29.72 in 10.0 mi NNE 5.8 mph - N/A   Clear
9:15 PM 59.0 °F 39.2 °F 48% 29.74 in 10.0 mi North 6.9 mph - N/A   Clear
9:35 PM 59.0 °F 39.2 °F 48% 29.75 in 10.0 mi NNE 6.9 mph - N/A   Clear
9:55 PM 57.2 °F 39.2 °F 51% 29.76 in 10.0 mi NNE 6.9 mph - N/A   Clear
10:15 PM 55.4 °F 39.2 °F 54% 29.77 in 10.0 mi NNE 5.8 mph - N/A   Clear
10:35 PM 55.4 °F 39.2 °F 54% 29.78 in 10.0 mi NNE 8.1 mph - N/A   Clear
10:55 PM 57.2 °F 39.2 °F 51% 29.79 in 10.0 mi NNE 9.2 mph - N/A   Clear
11:15 PM 55.4 °F 39.2 °F 54% 29.80 in 10.0 mi NE 6.9 mph - N/A   Clear
11:35 PM 53.6 °F 39.2 °F 58% 29.81 in 10.0 mi NE 9.2 mph - N/A   Scattered Clouds
11:55 PM 53.6 °F 39.2 °F 58% 29.82 in 10.0 mi NNE 6.9 mph - N/A   Clear